Regional Weather Roundup
Issued by NWS

Home | Current Version | Previous Version | Text Only | Print | Product List | Glossary On
Versions: 1 2 3 4 5 6 7 8 9 10 11 12 13 14 15 16 17 18 19 20 21 22 23 24 25 26 27 28 29 30 31 32 33 34 35 36 37 38 39 40 41 42 43 44 45 46 47 48 49 50
000
ASUS45 KREV 260810
RWRNV
NEVADA REGIONAL WEATHER ROUNDUP
NATIONAL WEATHER SERVICE RENO NV
1200 AM PST SUN FEB 26 2017

NOTE: "FAIR" INDICATES FEW OR NO CLOUDS BELOW 12,000 FEET WITH NO
SIGNIFICANT WEATHER AND/OR OBSTRUCTIONS TO VISIBILITY.

NVZ001-003-004-260900-
WESTERN NEVADA

CITY           SKY/WX    TMP DP  RH WIND       PRES   REMARKS
RENO           MOCLDY    30  23  75 CALM      29.98F
CARSON CITY    CLOUDY    32  25  74 N3        29.99S
MINDEN         CLOUDY    30  25  80 NW3       29.98F
PYRAMID LAKE     N/A     32 N/A N/A SW6         N/A
FALLON         PTCLDY    28  23  81 CALM      29.99F
LOVELOCK         N/A     23  21  92 SW6       29.99F
HAWTHORNE      CLOUDY    32  19  59 CALM      29.99S
$$

NVZ002-CAZ072-073-260900-
NORTHERN AND CENTRAL SIERRA

CITY           SKY/WX    TMP DP  RH WIND       PRES   REMARKS
S. LAKE TAHOE  PTCLDY    18  15  88 CALM      29.91F
TRUCKEE        CLEAR     12  10  92 CALM      29.95S FOG
SQUAW VLY 8000   N/A     12  12 100 NW1         N/A
SUSANVILLE     CLEAR    N/A N/A N/A W3        29.99F
MAMMOTH LAKES  FAIR       8   2  76 NW5       29.91S
BRIDGEPORT       N/A     13   7  77 W3        29.90F
$$

NVZ030-031-036-260900-
NORTHERN NEVADA

CITY           SKY/WX    TMP DP  RH WIND       PRES   REMARKS
ELKO           CLEAR     20  14  77 NE3       29.95F
WINNEMUCCA     NOT AVBL
WENDOVER       CLEAR     21  14  73 NE3       29.98S
$$

NVZ035-037-260900-
CENTRAL NEVADA

CITY           SKY/WX    TMP DP  RH WIND       PRES   REMARKS
ELY            CLEAR      8   5  87 S12       29.93S WCI  -7
EUREKA           N/A     16  10  77 S6        29.94S
$$

NVZ013-014-260900-
SOUTH CENTRAL NEVADA

CITY           SKY/WX    TMP DP  RH WIND       PRES   REMARKS
TONOPAH        CLOUDY    30  17  58 N15       29.93S
$$

NVZ017-020-022-260900-
SOUTHERN NEVADA

CITY           SKY/WX    TMP DP  RH WIND       PRES   REMARKS
LAS VEGAS      PTCLDY    44  22  41 W5        29.92R
N. LAS VEGAS   PTCLDY    41  25  53 NW6       29.92S
NELLIS AFB     CLEAR     41  25  53 NE3       29.93S
HENDERSON      CLOUDY    38  25  59 S8        29.95R
MERCURY        MOCLDY    34  22  61 NE6       29.91F
$$



USA.gov is the U.S. government's official web portal to all federal, state and local government web resources and services.